Other Public Products
Issued by NWS Grand Forks, ND

Home | Current Version | Previous Version | Text Only | Print | Product List | Glossary Off
Versions: 1 2 3 4 5 6 7 8 9 10 11 12 13 14 15 16 17 18 19 20 21 22 23 24 25 26 27 28 29 30 31 32 33 34 35 36 37 38 39 40 41 42 43 44 45 46 47 48 49 50

000
FPUS83 KFGF 310331
OPUFGF
PRAIRIE TO PINES WEATHER ROUNDUP
NATIONAL WEATHER SERVICE EASTERN NORTH DAKOTA/GRAND FORKS ND
900 PM CST FRI JAN 30 2015

 **SATELLITE DATA USED TO AUGMENT SKY COVER AT AUTOMATED STATIONS**
 *****  WEATHER ACROSS EASTERN NORTH DAKOTA  *****

CITY           SKY/WX    TMP DP  RH WIND       PRES   REMARKS
GRAND FORKS    CLOUDY    26  19  74 N15       30.17R WCI  14
GRAND FORKS AF CLOUDY    25  18  76 N15       30.19R WCI  13
GRAND CITY NWS   N/A     23 N/A N/A VRB12       N/A  WCI  12
BUXTON           N/A     27  23  86 NW16        N/A  WCI  15
DEVILS LAKE    CLOUDY    23  18  80 N15       30.18S WCI  10
FARGO          CLEAR     28  22  78 NW13      30.14R WCI  17
WAHPETON ARPT  FAIR      27  23  86 W7        30.15R WCI  19
$$

 *****  WEATHER ACROSS CENTRAL AND WESTERN NORTH DAKOTA  *****

CITY           SKY/WX    TMP DP  RH WIND       PRES   REMARKS
JAMESTOWN      CLOUDY    26  23  88 N10       30.17R WCI  16
BISMARCK       CLEAR     30  27  88 N8        30.20S WCI  22
MINOT          CLOUDY    25  21  85 N9        30.20S WCI  15
MINOT AFB      CLOUDY    25  24  99 N8        30.20F WCI  16
GARRISON         N/A     26  23  88 N8        30.19R WCI  18
WILLISTON      MOCLDY    28  24  85 N13       30.20S WCI  17
DICKINSON      CLEAR     31  23  72 N7        30.13F WCI  24
HETTINGER      CLEAR     24  20  84 CALM      30.16F
$$

 *****  OTHER OBSERVATIONS NORTHEAST NORTH DAKOTA  *****

CITY           SKY/WX    TMP DP  RH WIND       PRES   REMARKS
WALHALLA         N/A     18  18 100 N16G23    30.23R WCI   3
LANGDON        NOT AVBL
CAVALIER       CLOUDY    19  16  86 N15G23    30.21R WCI   5
GRAFTON        NOT AVBL
CANDO          CLOUDY    21  18  86 N12       30.21R WCI   9
FORT TOTTEN      N/A     23  20  90 N6        29.95S WCI  16
ROLLA          CLOUDY    19  19 100 N14       30.19R WCI   6
RUGBY          CLOUDY    23  23 100 NW10      30.20R WCI  12
 ***** THE ABOVE OBSERVATIONS ARE NON NWS ARE NOT QUALITY
        CONTROLLED AND MAY MIS-REPORT RAIN FOR SNOW...
$$

 *****  OTHER OBSERVATIONS SOUTHEAST NORTH DAKOTA *****

CITY           SKY/WX    TMP DP  RH WIND       PRES   REMARKS
COOPERSTOWN    NOT AVBL
VALLEY CITY    CLOUDY    27  27 100 N15       30.16S WCI  15
OAKES            N/A     28  28 100 NW12      30.16S WCI  18
GWINNER        CLEAR     32  32 100 NW15      30.16S WCI  22
SHEYENNE NWR     N/A     25  22  89 W6        29.95S WCI  18
BUFFALO        NOT AVBL
WYNDMERE         N/A     28  27  93 W5          N/A  WCI  23
 ***** THE ABOVE OBSERVATIONS ARE NON NWS ARE NOT QUALITY
       CONTROLLED AND MAY MIS-REPORT RAIN FOR SNOW...
$$

  *****  WEATHER ACROSS NORTHERN MINNESOTA  *****

CITY           SKY/WX    TMP DP  RH WIND       PRES   REMARKS
FLAG ISLAND    CLOUDY    12  10  92 CALM      30.11F
WARROAD        CLOUDY    19  16  86 CALM      30.13R
ROSEAU         CLOUDY    21  18  86 NW6       30.13R WCI  14
HALLOCK        CLOUDY    19  16  86 N18       30.18R WCI   4
THF RVR FALLS  CLOUDY    25  21  86 NW12      30.13R WCI  14
HALSTAD          N/A     27  23  84 N10         N/A  WCI  17
FOSSTON        CLOUDY    19  18  93 SW7       30.11S WCI  10
BAUDETTE       CLOUDY    17  10  74 SW3       30.11S
WASKISH        CLOUDY    19  12  73 CALM      30.11S
CROOKSTON      CLOUDY    25  21  86 N21G26    30.17R WCI  10
$$
  *****  WEATHER ACROSS CENTRAL AND WEST MINNESOTA  *****

CITY           SKY/WX    TMP DP  RH WIND       PRES   REMARKS
BEMIDJI        CLOUDY    23  18  80 CALM      30.09S
PARK RAPIDS    PTCLDY    20  16  84 S7        30.09F WCI  11
WADENA         CLEAR     19  18  93 S3        30.11F
DETROIT LAKES  CLEAR     21  21 100 CALM      30.12S
MOORHEAD       CLEAR     23  23 100 NW8       30.16R WCI  14
FERGUS FALLS   CLEAR     19  19 100 S5        30.16S WCI  13
ELBOW LAKE     FAIR      21  20  96 S6        30.13S WCI  14
MORRIS MN      CLEAR     27  25  93 W5        30.14R WCI  21
STAPLES        CLOUDY    23  19  86 S5        30.12F WCI  17
WHEATON        CLEAR     27  25  93 SW6       30.17R WCI  20
$$
  *****  WEATHER ELSEWHERE ACROSS MINNESOTA  *****

CITY           SKY/WX    TMP DP  RH WIND       PRES   REMARKS
DULUTH         CLOUDY    16   6  65 SW6       30.14F WCI   7
INTRNTL FALLS  CLOUDY    13   9  84 CALM      30.11F
ELY            LGT SNOW  12   7  79 S6        30.12F WCI   3
CLOQUET        CLOUDY    16   7  67 S3        30.14F
BRAINERD       CLOUDY    24  17  74 S5        30.14F WCI  18
HIBBING        CLOUDY    16   5  62 S5        30.13F WCI   9
ALEXANDRIA     CLEAR     20  17  88 SW6       30.13S WCI  12
SAINT CLOUD    CLOUDY    24  18  77 SE8       30.16F WCI  15
MINNEAPOLIS    PTCLDY    25  18  74 S5        30.21F WCI  19
$$

  *****  WEATHER ACROSS SOUTH DAKOTA  *****

CITY           SKY/WX    TMP DP  RH WIND       PRES   REMARKS
SIOUX FALLS    PTCLDY    34  27  75 SW10      30.16F
BROOKINGS      NOT AVBL
WATERTOWN      CLEAR     27  25  92 S3        30.12F
HURON          CLEAR     27  25  92 CALM      30.14F
SISSETON         N/A     31  28  89 NW7       30.14R WCI  24
ABERDEEN       CLEAR     28  25  88 NW5       30.16F WCI  23
MITCHELL       CLEAR     36  27  69 S6        30.14S
PIERRE         PTCLDY    27  21  78 N3        30.13F
MOBRIDGE       CLEAR     28  24  85 N7        30.12F WCI  21
RAPID CITY     CLOUDY    34  23  64 N10       30.13F
$$

  *****  SOME WEATHER IN NEARBY STATES *****

CITY           SKY/WX    TMP DP  RH WIND       PRES   REMARKS
GLASGOW MT     CLEAR     30  27  88 E10       30.12F WCI  21
GREAT FALLS MT CLEAR     32  20  61 S13       30.02F WCI  22
CHEYENNE WY    CLOUDY    35  19  52 N9        30.07F
SCOTTSBLUFF NE CLOUDY    33  28  81 N7        30.09F
OMAHA NE       CLOUDY    33  25  72 SE9       30.29S
DES MOINES IA  PTCLDY    29  15  56 S9        30.31F WCI  20
DAVENPORT IA   CLEAR     20  14  77 S7        30.37F WCI  11
CHICAGO IL     PTCLDY    22  13  68 CALM      30.39F
EAU CLAIRE WI  CLOUDY    19   7  59 S5        30.24F WCI  12
LA CROSSE WI   MOCLDY    23  10  57 S9        30.28F WCI  13
$$

  *****  SOME NATIONAL WEATHER *****

CITY           SKY/WX    TMP DP  RH WIND       PRES   REMARKS
LA GUARDIA NY  PTCLDY    22   9  57 NW28G36   30.01R WCI   4
RALEIGH NC     PTCLDY    32   7  35 NW8       30.29R WCI  25
ATLANTA GA     PTCLDY    40  19  43 N10G17    30.33R
NEW ORLEANS LA MOCLDY    51  39  63 N5        30.35R
OKLAHOMA CITY  CLOUDY    44  24  45 E10       30.33F
ALBUQUERQUE NM LGT RAIN  34  32  92 N8        30.07S
SALT LAKE CITY CLOUDY    40  36  86 W7        29.98F
LOS ANGELES CA MOCLDY    60  56  86 SW5       29.85S
BOISE ID       CLEAR     35  30  82 CALM      30.15S
SEATTLE WA     PTCLDY    37  36  93 CALM      30.26F FOG
$$

*** WEATHER ACROSS MANITOBA...SASKATCHEWAN AND ONTARIO ***
                ***ONTARIO***

CITY           SKY/WX    TMP DP  RH WIND       PRES   REMARKS
GERALDTON      CLEAR     -2  -8  78 SW6       30.13F WCI -14
THUNDER BAY    LGT SNOW   9   7  92 W2        30.19F
SIOUX LOOKOUT  LGT SNOW   7   3  85 SW6       30.08F WCI  -3
TORONTO        PTCLDY     5  -4  66 W9        30.37R WCI  -9
BIG TROUT LK   FLURRIES   0  -4  85 NW12      30.02S WCI -18
PICKLE LAKE    NOT AVBL
DRYDEN         FLURRIES   7   5  92 SW7       30.09F WCI  -5
KENORA         FLURRIES   9   7  92 W5        30.11S WCI   0
$$
                *** MANITOBA***

CITY           SKY/WX    TMP DP  RH WIND       PRES   REMARKS
BRANDON        FLURRIES  16  12  86 E10       30.25R WCI   3
DAUPHIN        CLEAR      1  -2  85 NW5       30.34R WCI  -8
ISLAND LAKE    PTCLDY    -6 -13  71 NW17G23   30.19R WCI -28
PILOT MOUND      N/A     16  12  86 N18G25      N/A  WCI  -1
THE PAS        CLEAR     -6 -15  65 N14       30.41R WCI -26
THOMPSON       CRYSTALS -18 -29  57 NW16G26   30.36R WCI -44
WINNIPEG       CLOUDY    14  10  85 NW14      30.24R WCI  -1
LYNN LAKE      CLEAR    -24 -31  69 NW13G18   30.43R WCI -48
CHURCHILL      BLWGSNOW -26 -33  68 NW28G37   30.23S VSB 1/2 WCI -60
GILLAM         CLEAR    -22 -33  57 NW18      30.28R WCI -50
$$
                ***SASKATCHEWAN***

CITY           SKY/WX    TMP DP  RH WIND       PRES   REMARKS
ESTEVAN        FLURRIES  21  19  93 N6        30.22S WCI  14
KINDERSLEY     LGT SNOW  18  16  93 NE15      30.22F FOG     WCI   3
LLOYDMINSTER   CLOUDY     9   0  66 NE16      30.35R WCI  -9
PRINCE ALBERT  CLOUDY     7  -2  66 N13       30.41R WCI  -9
REGINA         FLURRIES  18  14  86 N10       30.25F WCI   6


USA.gov is the U.S. government's official web portal to all federal, state and local government web resources and services.